Lawrence, MA

2:41 PM EDT on April 22, 2018 (GMT -0400)
Lawrence Municipal

Weather History for KLWM - March, 2013

Change the Weather History Date:

Monday, March 4, 2013

  Actual Average Record
Temperature  
Mean Temperature 34 °F -  
Max Temperature 39 °F 39 °F 69 °F (1991)
Min Temperature 30 °F 22 °F -4 °F (1950)
Degree Days  
Heating Degree Days 30    
Moisture  
Dew Point 23 °F    
Average Humidity 63    
Maximum Humidity 75    
Minimum Humidity 50    
Precipitation  
Precipitation 0.00 in - - ()
Sea Level Pressure  
Sea Level Pressure 29.64 in    
Wind  
Wind Speed 11 mph (WNW)    
Max Wind Speed 17 mph    
Max Gust Speed 26 mph    
Visibility 9 miles    
Events Snow    
Averages and records for this station are not official NWS values.
T = Trace of Precipitation, MM = Missing Value Source: NWS Daily Summary

Daily Weather History Graph

Daily Weather History Graph

Search for Another Location

Airport or City:

Astronomy

Mar. 04, 2013 Rise Set
Actual Time 6:14 AM EST 5:37 PM EST
Civil Twilight 5:46 AM EST 6:06 PM EST
Nautical Twilight 5:14 AM EST 6:38 PM EST
Astronomical Twilight 4:41 AM EST 7:11 PM EST
Moon 12:26 AM EST (3/4) 10:11 AM EST (3/4)
Length of Visible Light 12h 19m
Length of Day
11h 23m
Waning Gibbous, 52% of the Moon is Illuminated
Mar 4
Waning Gibbous
Mar 4
Last Quarter
Mar 11
New
Mar 19
First Quarter
Mar 27
Full

Hourly Weather History & Observations

Time (EST) Temp. Windchill Dew Point Humidity Pressure Visibility Wind Dir Wind Speed Gust Speed Precip Events Conditions
12:54 AM 34.0 °F 27.2 °F 23.0 °F 64% 29.60 in 10.0 mi NW 8.1 mph 19.6 mph N/A   Mostly Cloudy
1:54 AM 34.0 °F 25.5 °F 23.0 °F 64% 29.61 in 10.0 mi NW 11.5 mph 18.4 mph N/A   Overcast
2:54 AM 34.0 °F 27.2 °F 23.0 °F 64% 29.61 in 10.0 mi West 8.1 mph - N/A   Overcast
3:54 AM 32.0 °F 26.4 °F 21.9 °F 66% 29.61 in 10.0 mi WNW 5.8 mph - N/A   Mostly Cloudy
4:54 AM 30.9 °F 25.2 °F 21.9 °F 69% 29.62 in 10.0 mi West 5.8 mph - N/A   Clear
5:54 AM 30.9 °F 21.2 °F 21.0 °F 67% 29.62 in 10.0 mi WNW 12.7 mph 19.6 mph N/A   Clear
6:54 AM 32.0 °F 22.5 °F 21.0 °F 64% 29.63 in 10.0 mi West 12.7 mph 19.6 mph N/A   Clear
7:50 AM 32.0 °F 23.0 °F 19.4 °F 60% 29.63 in 10.0 mi WNW 11.5 mph 21.9 mph N/A   Mostly Cloudy
7:54 AM 33.1 °F 24.9 °F 21.0 °F 61% 29.64 in 10.0 mi WNW 10.4 mph 18.4 mph N/A   Mostly Cloudy
8:02 AM 32.0 °F 22.1 °F 19.4 °F 60% 29.63 in 10.0 mi WNW 13.8 mph 23.0 mph N/A   Scattered Clouds
8:54 AM 33.1 °F 23.0 °F 19.9 °F 59% 29.62 in 10.0 mi NW 15.0 mph 21.9 mph N/A   Scattered Clouds
9:54 AM 35.1 °F 25.5 °F 19.9 °F 54% 29.62 in 10.0 mi WNW 15.0 mph 23.0 mph N/A   Scattered Clouds
10:54 AM 36.0 °F 29.0 °F 19.9 °F 52% 29.61 in 10.0 mi WNW 9.2 mph 21.9 mph N/A   Partly Cloudy
11:54 AM 37.9 °F 30.0 °F 21.0 °F 51% 29.61 in 10.0 mi NW 12.7 mph 20.7 mph N/A   Overcast
12:54 PM 39.0 °F 30.6 °F 21.9 °F 50% 29.59 in 10.0 mi WNW 15.0 mph 25.3 mph N/A   Overcast
1:54 PM 39.0 °F 30.3 °F 23.0 °F 53% 29.59 in 10.0 mi WNW 16.1 mph 23.0 mph N/A   Overcast
2:54 PM 37.0 °F 27.4 °F 24.1 °F 59% 29.60 in 10.0 mi WNW 17.3 mph 25.3 mph 0.00 in Snow Light Snow
3:54 PM 37.9 °F 30.0 °F 23.0 °F 55% 29.61 in 10.0 mi WNW 12.7 mph 26.5 mph 0.00 in   Overcast
4:54 PM 36.0 °F 27.1 °F 25.0 °F 64% 29.63 in 10.0 mi WNW 13.8 mph 20.7 mph N/A   Overcast
5:29 PM 35.6 °F 25.9 °F 24.8 °F 65% 29.64 in 10.0 mi WNW 16.1 mph 24.2 mph 0.00 in Snow Light Snow
5:54 PM 34.0 °F 26.0 °F 26.1 °F 73% 29.66 in 4.0 mi NW 10.4 mph 19.6 mph 0.00 in Snow Light Snow
6:06 PM 33.8 °F 24.8 °F 26.6 °F 75% 29.66 in 3.0 mi WNW 12.7 mph 21.9 mph 0.00 in Snow Light Snow
6:17 PM 33.8 °F 25.8 °F 26.6 °F 75% 29.67 in 2.5 mi NW 10.4 mph 17.3 mph 0.00 in Snow Light Snow
6:41 PM 33.8 °F 24.3 °F 26.6 °F 75% 29.67 in 5.0 mi NW 13.8 mph 21.9 mph 0.00 in Snow Light Snow
6:54 PM 33.1 °F 24.4 °F 26.1 °F 75% 29.68 in 9.0 mi NW 11.5 mph 21.9 mph 0.00 in   Overcast
7:54 PM 33.1 °F 23.4 °F 24.1 °F 70% 29.70 in 10.0 mi NW 13.8 mph 24.2 mph 0.00 in   Overcast
8:54 PM 33.1 °F 23.4 °F 21.9 °F 64% 29.72 in 10.0 mi NNW 13.8 mph 21.9 mph N/A   Overcast
9:54 PM 32.0 °F 22.1 °F 21.0 °F 64% 29.73 in 10.0 mi NW 13.8 mph 18.4 mph N/A   Overcast
10:54 PM 32.0 °F 25.6 °F 21.0 °F 64% 29.75 in 10.0 mi Variable 6.9 mph - N/A   Mostly Cloudy
11:54 PM 32.0 °F 24.2 °F 21.0 °F 64% 29.75 in 10.0 mi NNW 9.2 mph - N/A   Overcast